Location: Newark
(45.5000°N, 11.4167°E)
Time: 04:00:11
(UTC+00:00)

Altair - Pass Details

Date: 31 August 2019
Orbit: 1501 x 1683 km, 47.2° (Epoch: 14 September)

Event Time Altitude Azimuth Distance (km) Brightness Sun altitude
Exits shadow 03:38:42 - 279° (W) 4,445 9.4 -10.0°
Reaches altitude 10° 03:40:35 10° 280° (W) 3,849 9.1 -9.7°
Maximum altitude 03:50:25 84° 10° (N) 1,585 7.6 -8.1°
Drops below altitude 10° 03:59:51 10° 99° (E) 3,703 10.6 -6.6°
Sets 04:02:50 0° 100° (E) 4,667 11.2 -6.1°
